Flag for U.S.A. Weather past 2 weeks in Corvallis, Oregon, U.S.A.

Now
36 °F

Low clouds.


Feels Like: 36 °F
Forecast: 33 / 50 °F
Wind: No wind

Location: Corvallis Municipal

Current Time: Jan 31, 2015 at 8:12:23 AM

Latest Report: Jan 31, 2015 at 7:35 AM


Visibility: 0 mi

Pressure: 30.24 "Hg

Humidity: 93%

Dew point: 34 °F

Location of CorvallisLocation

Historic Weather in Corvallis — Graph

°F

Corvallis temperature yesterday

Maximum temperature yesterday: 57 °F (at 3:15 PM)
Minimum temperature yesterday: 36 °F (at 3:35 AM)
Average temperature yesterday: 42 °F

Past Weeks' High & Low Weather Summary

 TemperatureHumidityPressure
High63 °F (Jan 17, 10:55 PM)100% (Jan 19, 9:35 AM)30.49 "Hg (Jan 19, 9:35 AM)
Low34 °F (Jan 20, 9:55 PM)51% (Jan 30, 3:15 PM)29.80 "Hg (Jan 17, 8:55 PM)
Average46 °F87%30.25 "Hg
* Reported Jan 16 8:35 AM — Jan 31 6:55 AM, Corvallis, Weather by CustomWeather, © 2014

Note: Actual official high and low records may vary slightly from our data, if they occured in-between our weather recording intervals... More about our weather records

Advertising

Corvallis weather history for previous 24 hours

 ConditionsComfort  
Time TempWeatherWind HumidityBarometerVisibility
6:55 AM
Jan 31
37 °FLow clouds.No wind87%30.22 "Hg0 mi
6:35 AM37 °FLow clouds.No wind87%30.22 "Hg0 mi
6:15 AM37 °FLow clouds.No wind87%30.21 "Hg0 mi
5:55 AM37 °FLow clouds.No wind87%30.22 "Hg0 mi
5:35 AM37 °FLow clouds.No wind93%30.22 "Hg0 mi
5:15 AM37 °FLow clouds.No wind87%30.22 "Hg0 mi
4:55 AM37 °FLow clouds.No wind87%30.22 "Hg0 mi
4:35 AM37 °FLow clouds.No wind87%30.21 "Hg0 mi
4:15 AM37 °FLow clouds.No wind87%30.22 "Hg0 mi
3:55 AM37 °FLow clouds.No wind87%30.22 "Hg0 mi
3:35 AM37 °FLow clouds.No wind87%30.22 "Hg0 mi
3:15 AM37 °FLow clouds.No wind87%30.22 "Hg1 mi
2:55 AM37 °FLow clouds.No wind87%30.22 "Hg0 mi
2:35 AM37 °FLow clouds.No wind87%30.22 "Hg0 mi
2:15 AM37 °FLow clouds.No wind87%30.23 "Hg0 mi
1:55 AM37 °FLow clouds.No wind87%30.22 "Hg0 mi
1:35 AM37 °FLow clouds.No wind93%30.22 "Hg0 mi
1:15 AM37 °FLow clouds.No wind93%30.22 "Hg0 mi
12:55 AM37 °FLow clouds.No wind87%30.23 "Hg0 mi
12:35 AM37 °FLow clouds.5 mph87%30.23 "Hg0 mi
12:15 AM37 °FPassing clouds.3 mph87%30.24 "Hg2 mi
11:55 PM
Jan 30
37 °FClear.No wind87%30.24 "Hg10 mi
11:35 PM37 °FClear.No wind87%30.24 "Hg8 mi
11:15 PM39 °FClear.No wind87%30.23 "Hg10 mi
10:55 PM37 °FClear.No wind87%30.23 "Hg10 mi
10:35 PM37 °FClear.No wind93%30.22 "Hg10 mi
10:15 PM37 °FClear.No wind93%30.22 "Hg10 mi
9:55 PM37 °FClear.3 mph93%30.22 "Hg10 mi
9:35 PM37 °FClear.No wind87%30.23 "Hg10 mi
9:15 PM37 °FClear.No wind93%30.23 "Hg10 mi
8:55 PM37 °FClear.No wind87%30.23 "Hg10 mi
8:35 PM39 °FClear.No wind87%30.24 "Hg10 mi
8:15 PM39 °FClear.No wind93%30.23 "Hg10 mi
7:15 PM39 °FClear.No wind87%30.23 "Hg10 mi
6:55 PM43 °FClear.3 mph87%30.24 "Hg10 mi
6:35 PM43 °FClear.No wind87%30.23 "Hg10 mi
6:15 PM45 °FClear.No wind81%30.23 "Hg10 mi
5:55 PM46 °FClear.No wind76%30.23 "Hg10 mi
5:35 PM50 °FClear.No wind67%30.23 "Hg10 mi
5:15 PM52 °FSunny.No wind67%30.23 "Hg10 mi
4:55 PM54 °FSunny.No wind63%30.23 "Hg10 mi
4:35 PM54 °FSunny.No wind63%30.23 "Hg10 mi
4:15 PM55 °FSunny.7 mph59%30.23 "Hg10 mi
3:55 PM55 °FSunny.7 mph55%30.22 "Hg10 mi
3:35 PM55 °FSunny.6 mph55%30.22 "Hg10 mi
3:15 PM57 °FSunny.7 mph51%30.22 "Hg10 mi
2:55 PM54 °FSunny.No wind58%30.21 "Hg10 mi
2:35 PM54 °FSunny.No wind58%30.21 "Hg10 mi
2:15 PM54 °FSunny.No wind58%30.20 "Hg10 mi
1:35 PM52 °FSunny.3 mph62%30.22 "Hg10 mi
1:15 PM52 °FSunny.No wind62%30.23 "Hg7 mi
12:55 PM52 °FSunny.5 mph62%30.23 "Hg5 mi
12:35 PM50 °FSunny.5 mph62%30.25 "Hg10 mi
12:15 PM50 °FSunny.6 mph62%30.26 "Hg10 mi
11:55 AM48 °FSunny.5 mph66%30.27 "Hg10 mi
11:35 AM48 °FSunny.5 mph71%30.30 "Hg10 mi
11:15 AM46 °FSunny.5 mph71%30.31 "Hg10 mi
10:55 AM46 °FSunny.6 mph71%30.31 "Hg10 mi
10:35 AM45 °FSunny.6 mph76%30.32 "Hg10 mi
10:15 AM43 °FSunny.5 mph87%30.32 "Hg10 mi
9:55 AM39 °FSunny.No wind93%30.32 "Hg10 mi
9:35 AM37 °FSunny.No wind100%30.32 "Hg10 mi
9:15 AM36 °FSunny.No wind93%30.32 "Hg9 mi
8:55 AM36 °FSunny.No wind93%30.32 "Hg4 mi
8:35 AM36 °FSunny.No wind93%30.31 "Hg10 mi
8:15 AM36 °FSunny.No wind87%30.31 "Hg10 mi
Weather by CustomWeather, © 2014

See weather overviewHow to use our weather pages